Location: Unspecified
(0.0000°N, 0.0000°E)
Time: 14:05:22
(UTC+00:00)

Explorer 7 - Pass Details

Date: 19 November 2019
Orbit: 485 x 680 km, 50.3° (Epoch: 08 December)

Event Time Altitude Azimuth Distance (km) Brightness Sun altitude
Rises 19:37:02 0° 191° (S) 3,004 11.0 -26.2°
Reaches altitude 10° 19:39:58 10° 173° (S) 2,104 9.9 -26.9°
Enters shadow 19:41:09 14° 161° (SSE) 1,825 9.5 -27.1°
